Location: Santa Barbara
(34.4500°N, 119.7700°W)
Time: 12:34:52
(UTC-07:00)

Cosmos 1626 Rocket - Visible Passes

Search period start: 22 July 2014 00:00
Search period end: 01 August 2014 00:00
Orbit: 605 x 633 km, 82.5° (Epoch: 21 July)

Date Brightness Start Highest point End Pass type
(mag) Time Alt. Az. Time Alt. Az. Time Alt. Az.
22 Jul 5.8 00:00:00 14° NW 00:01:13 21° NW 00:01:13 21° NW visible
22 Jul 4.9 22:38:37 10° NNE 22:41:23 29° NE 22:41:23 29° NE visible
23 Jul 6.3 00:17:44 10° NW 00:18:32 12° WNW 00:18:32 12° WNW visible
23 Jul 4.5 22:55:40 10° N 22:58:43 43° N 22:58:43 43° N visible
24 Jul 5.9 21:38:53 10° ENE 21:38:54 10° ENE 21:38:54 10° ENE visible
24 Jul 4.8 23:13:04 10° NNW 23:16:03 38° NW 23:16:03 38° NW visible
25 Jul 5.2 21:53:31 10° NNE 21:56:15 19° ENE 21:56:15 19° ENE visible
25 Jul 5.6 23:30:52 10° NNW 23:33:25 24° WNW 23:33:25 24° WNW visible
26 Jul 4.4 22:10:07 10° N 22:13:38 36° ENE 22:13:38 36° ENE visible
26 Jul 6.3 23:49:27 10° NW 23:50:47 13° WNW 23:50:47 13° WNW visible
27 Jul 3.7 22:27:12 10° N 22:31:02 65° NNE 22:31:02 65° NNE visible
28 Jul 5.7 21:09:43 10° ENE 21:10:42 11° ENE 21:11:17 10° E visible
28 Jul 4.3 22:44:38 10° NNW 22:48:27 48° WNW 22:48:27 48° WNW visible
29 Jul 5.0 21:24:58 10° NNE 21:28:17 21° ENE 21:28:43 20° E visible
29 Jul 5.4 23:02:29 10° NW 23:05:53 25° W 23:05:53 25° W visible
30 Jul 4.0 21:41:37 10° N 21:45:45 40° E 21:46:10 39° E visible
30 Jul 6.2 23:21:12 10° WNW 23:23:09 13° W 23:23:20 13° W visible
31 Jul 3.4 21:58:44 10° N 22:03:06 83° E 22:03:40 67° SSE visible
